When you browse on this site, cookies collect data to enhance your experience and personalize the content and advertising you see.
Visit our Privacy Policy to learn more. By continuing to use the site, you agree to this use of cookies and data.
  • In Lithuania
  • List of Countries
  • For 7 days
  • Water Temperature
  • Satellite Maps
  • Weather Map
  • Weather Widgets
  • user-avatar
    Login

    Hourly Weather La Massana

    Today, 21 July, Sunday

    Time Temperature Precipitation Wind Pressure Humidity
    00:00 +13°C° 0 mm 0 mps 615 mmHg 87%
    01:00 +13°C° 0 mm 1 mps 615 mmHg 86%
    02:00 +13°C° 0 mm 1 mps 615 mmHg 85%
    03:00 +13°C° 0 mm 1 mps 615 mmHg 84%
    04:00 +14°C° 0 mm 1 mps 615 mmHg 80%
    05:00 +15°C° 0 mm 1 mps 616 mmHg 76%
    06:00 +16°C° 0 mm 1 mps 617 mmHg 72%
    07:00 +19°C° 0 mm 1 mps 618 mmHg 63%
    08:00 +21°C° 0 mm 1 mps 619 mmHg 54%
    09:00 +24°C° 0 mm 1 mps 620 mmHg 46%
    10:00 +24°C° 0 mm 2 mps 620 mmHg 44%
    11:00 +25°C° 0 mm 2 mps 620 mmHg 42%
    12:00 +26°C° 0 mm 2 mps 620 mmHg 41%
    13:00 +26°C° 0.2 mm 2 mps 620 mmHg 43%
    14:00 +26°C° 0.2 mm 2 mps 620 mmHg 45%
    15:00 +25°C° 0.2 mm 2 mps 620 mmHg 48%
    16:00 +24°C° 0.4 mm 2 mps 619 mmHg 54%
    17:00 +23°C° 0.4 mm 1 mps 619 mmHg 61%
    18:00 +22°C° 0.4 mm 1 mps 618 mmHg 67%
    19:00 +20°C° 0.1 mm 1 mps 618 mmHg 72%
    20:00 +17°C° 0.1 mm 0 mps 617 mmHg 77%
    21:00 +15°C° 0.1 mm 0 mps 617 mmHg 81%
    22:00 +15°C° 0.1 mm 1 mps 617 mmHg 80%
    23:00 +15°C° 0.1 mm 1 mps 617 mmHg 79%

    Tomorrow, 22 July, Monday

    Time Temperature Precipitation Wind Pressure Humidity
    00:00 +15°C° 0.1 mm 1 mps 617 mmHg 78%
    01:00 +15°C° 0 mm 1 mps 617 mmHg 78%
    02:00 +15°C° 0 mm 1 mps 616 mmHg 77%
    03:00 +15°C° 0 mm 1 mps 616 mmHg 76%
    04:00 +15°C° 0 mm 1 mps 617 mmHg 75%
    05:00 +16°C° 0 mm 1 mps 617 mmHg 74%
    06:00 +18°C° 0 mm 1 mps 617 mmHg 72%
    07:00 +20°C° 0 mm 1 mps 618 mmHg 60%
    08:00 +23°C° 0 mm 1 mps 620 mmHg 48%
    09:00 +26°C° 0 mm 1 mps 621 mmHg 36%
    10:00 +26°C° 0 mm 1 mps 621 mmHg 34%
    11:00 +27°C° 0 mm 2 mps 621 mmHg 32%
    12:00 +28°C° 0 mm 2 mps 621 mmHg 31%
    13:00 +28°C° 0.1 mm 2 mps 621 mmHg 34%
    14:00 +27°C° 0.1 mm 2 mps 620 mmHg 38%
    15:00 +27°C° 0.1 mm 2 mps 620 mmHg 42%
    16:00 +25°C° 0.1 mm 1 mps 619 mmHg 48%
    17:00 +24°C° 0.1 mm 1 mps 618 mmHg 53%
    18:00 +21°C° 0.1 mm 0 mps 618 mmHg 59%
    19:00 +21°C° 0 mm 1 mps 617 mmHg 61%
    20:00 +19°C° 0 mm 1 mps 616 mmHg 62%
    21:00 +16°C° 0 mm 1 mps 616 mmHg 63%
    22:00 +16°C° 0 mm 1 mps 616 mmHg 60%
    23:00 +16°C° 0 mm 1 mps 616 mmHg 57%

    Day after tomorrow, 23 July, Tuesday

    Time Temperature Precipitation Wind Pressure Humidity
    00:00 +16°C° 0 mm 2 mps 615 mmHg 54%
    01:00 +16°C° 0 mm 2 mps 615 mmHg 52%
    02:00 +16°C° 0 mm 2 mps 615 mmHg 51%
    03:00 +16°C° 0 mm 2 mps 615 mmHg 49%
    04:00 +16°C° 0 mm 2 mps 615 mmHg 50%
    05:00 +17°C° 0 mm 2 mps 615 mmHg 50%
    06:00 +18°C° 0 mm 1 mps 615 mmHg 51%
    07:00 +21°C° 0 mm 1 mps 616 mmHg 44%
    08:00 +24°C° 0 mm 1 mps 617 mmHg 37%
    09:00 +26°C° 0 mm 1 mps 619 mmHg 29%
    10:00 +27°C° 0 mm 1 mps 619 mmHg 28%
    11:00 +28°C° 0 mm 2 mps 619 mmHg 26%
    12:00 +29°C° 0 mm 2 mps 619 mmHg 24%
    13:00 +28°C° 0 mm 2 mps 618 mmHg 26%
    14:00 +28°C° 0 mm 2 mps 618 mmHg 28%
    15:00 +27°C° 0 mm 2 mps 617 mmHg 31%
    16:00 +26°C° 0 mm 2 mps 617 mmHg 37%
    17:00 +25°C° 0 mm 2 mps 616 mmHg 43%
    18:00 +24°C° 0 mm 1 mps 615 mmHg 49%
    19:00 +22°C° 0 mm 1 mps 615 mmHg 51%
    20:00 +20°C° 0 mm 1 mps 615 mmHg 54%
    21:00 +18°C° 0 mm 1 mps 614 mmHg 56%
    22:00 +18°C° 0 mm 1 mps 614 mmHg 54%
    23:00 +16°C° 0 mm 1 mps 614 mmHg 53%

    24 July, Wednesday

    Time Temperature Precipitation Wind Pressure Humidity
    00:00 +16°C° 0 mm 1 mps 614 mmHg 51%
    01:00 +16°C° 0 mm 1 mps 614 mmHg 51%
    02:00 +16°C° 0 mm 1 mps 613 mmHg 51%
    03:00 +15°C° 0 mm 1 mps 613 mmHg 50%
    04:00 +16°C° 0 mm 1 mps 614 mmHg 51%
    05:00 +18°C° 0 mm 1 mps 614 mmHg 52%
    06:00 +18°C° 0 mm 1 mps 614 mmHg 53%
    07:00 +21°C° 0 mm 1 mps 615 mmHg 47%
    08:00 +23°C° 0 mm 1 mps 616 mmHg 40%
    09:00 +26°C° 0 mm 1 mps 617 mmHg 34%
    10:00 +27°C° 0 mm 1 mps 617 mmHg 32%
    11:00 +27°C° 0 mm 2 mps 617 mmHg 30%
    12:00 +28°C° 0 mm 2 mps 617 mmHg 29%
    13:00 +27°C° 0 mm 2 mps 617 mmHg 31%
    14:00 +27°C° 0 mm 2 mps 616 mmHg 33%
    15:00 +27°C° 0 mm 2 mps 616 mmHg 35%
    16:00 +26°C° 0 mm 2 mps 615 mmHg 40%
    17:00 +24°C° 0 mm 2 mps 615 mmHg 46%
    18:00 +23°C° 0 mm 2 mps 614 mmHg 51%
    19:00 +20°C° 0 mm 2 mps 614 mmHg 56%
    20:00 +19°C° 0 mm 1 mps 613 mmHg 62%
    21:00 +16°C° 0 mm 1 mps 613 mmHg 67%
    22:00 +16°C° 0 mm 1 mps 612 mmHg 67%
    23:00 +16°C° 0 mm 1 mps 612 mmHg 67%

    25 July, Thursday

    Time Temperature Precipitation Wind Pressure Humidity
    00:00 +15°C° 0 mm 1 mps 612 mmHg 67%
    01:00 +15°C° 0 mm 1 mps 612 mmHg 66%
    02:00 +15°C° 0 mm 1 mps 611 mmHg 64%
    03:00 +15°C° 0 mm 1 mps 611 mmHg 62%
    04:00 +16°C° 0 mm 2 mps 612 mmHg 60%
    05:00 +16°C° 0 mm 2 mps 612 mmHg 57%
    06:00 +17°C° 0 mm 2 mps 612 mmHg 54%
    07:00 +19°C° 0 mm 2 mps 613 mmHg 47%
    08:00 +23°C° 0 mm 2 mps 614 mmHg 40%
    09:00 +25°C° 0 mm 2 mps 615 mmHg 33%
    10:00 +26°C° 0 mm 2 mps 615 mmHg 31%
    11:00 +27°C° 0 mm 2 mps 616 mmHg 29%
    12:00 +28°C° 0 mm 3 mps 616 mmHg 26%
    13:00 +28°C° 0 mm 3 mps 615 mmHg 27%
    14:00 +28°C° 0 mm 3 mps 615 mmHg 28%
    15:00 +28°C° 0 mm 3 mps 615 mmHg 28%
    16:00 +26°C° 0 mm 3 mps 614 mmHg 36%
    17:00 +25°C° 0 mm 2 mps 614 mmHg 44%
    18:00 +23°C° 0 mm 2 mps 613 mmHg 51%
    19:00 +21°C° 0 mm 1 mps 613 mmHg 56%
    20:00 +19°C° 0 mm 1 mps 612 mmHg 61%
    21:00 +16°C° 0 mm 1 mps 612 mmHg 66%
    22:00 +16°C° 0 mm 1 mps 612 mmHg 67%
    23:00 +16°C° 0 mm 1 mps 612 mmHg 69%

    26 July, Friday

    Time Temperature Precipitation Wind Pressure Humidity
    00:00 +15°C° 0 mm 1 mps 612 mmHg 71%
    01:00 +15°C° 0 mm 1 mps 612 mmHg 73%
    02:00 +14°C° 0 mm 1 mps 612 mmHg 75%
    03:00 +14°C° 0 mm 1 mps 612 mmHg 77%
    04:00 +14°C° 0 mm 1 mps 612 mmHg 77%
    05:00 +14°C° 0 mm 1 mps 612 mmHg 77%
    06:00 +14°C° 0 mm 1 mps 612 mmHg 78%
    07:00 +15°C° 0 mm 1 mps 613 mmHg 73%
    08:00 +16°C° 0 mm 2 mps 614 mmHg 68%
    09:00 +18°C° 0 mm 2 mps 615 mmHg 63%
    10:00 +18°C° 0.9 mm 2 mps 615 mmHg 65%
    11:00 +18°C° 0.9 mm 2 mps 615 mmHg 66%
    12:00 +18°C° 0.9 mm 3 mps 615 mmHg 68%
    13:00 +17°C° 1 mm 2 mps 615 mmHg 72%
    14:00 +16°C° 1 mm 2 mps 614 mmHg 77%
    15:00 +15°C° 1 mm 1 mps 614 mmHg 82%
    16:00 +15°C° 1.5 mm 1 mps 613 mmHg 86%
    17:00 +14°C° 1.5 mm 1 mps 613 mmHg 91%
    18:00 +13°C° 1.5 mm 1 mps 613 mmHg 95%
    19:00 +13°C° 0.2 mm 1 mps 613 mmHg 95%
    20:00 +12°C° 0.2 mm 1 mps 613 mmHg 96%
    21:00 +12°C° 0.2 mm 1 mps 613 mmHg 96%
    22:00 +12°C° 0 mm 1 mps 613 mmHg 96%
    23:00 +11°C° 0 mm 1 mps 613 mmHg 96%
    Show more